Main page
METAR-TAF:

METAR-TAF

Airports :

Oil platform

Ula, Norway

latitude: 59-06-39N, longitude: 2-50-45E, elevation: 0 m

Current weather observation

The report was made 31 minutes ago, at 20:50 UTC
Wind 19 kt from the West/Southwest
Temperature 10°C
Humidity 93%
Pressure 1015 hPa
Visibility 10 km or more

METAR: ENLA 132050Z AUTO 25019KT 9999NDV NCD 10/09 Q1015 W///S4

Time: 22:21 (21:21 UTC)


TAF: missing

Weather observations and forecasts of more than 4000 airports (METAR and TAF reports).

The available stations are represented by yellow and red dots on the map.

Hover mouse over dot to see the name of the station.

Then click to see weather observations and forecasts.

To change the map : click on the green buttons with a black cross to zoom in, on the green button with a dash to zoom out, or on the green arrows for adjacent maps.


METAR-TAF: